Regional Weather Roundup
Issued by NWS Albany, NY

Home | Current Version | Previous Version | Graphics & Text | Print | Product List | Glossary Off
Versions: 1 2 3 4 5 6 7 8 9 10 11 12 13 14 15 16 17 18 19 20 21 22 23 24 25 26 27 28 29 30 31 32 33 34 35 36 37 38 39 40 41 42 43 44 45 46 47 48 49 50

856
ASUS41 KALY 301610
RWRALY

NEW YORK STATE HOURLY WEATHER ROUNDUP
NATIONAL WEATHER SERVICE ALBANY NY
1200 PM EDT SAT JUL 30 2016

NOTE: "FAIR" INDICATES FEW OR NO CLOUDS BELOW 12,000 FEET WITH NO
SIGNIFICANT WEATHER AND/OR NO OBSTRUCTIONS TO VISIBILITY.

NYZ032-033-038>043-046>054-057>066-NYZ062>081-082-084-301700-
EAST


CITY           SKY/WX    TMP DP  RH WIND       PRES   REMARKS
ALBANY         PTSUNNY   77  62  59 VRB3      30.06S
GLENS FALLS    CLOUDY    76  58  53 N6        30.06S
POUGHKEEPSIE   CLOUDY    80  64  58 CALM      30.02S
NEWBURGH       PTSUNNY   77  66  69 NE6       30.06S
MONTGOMERY     PTSUNNY   79  66  64 N5        30.04S
WHITE PLAINS   MOSUNNY   80  68  66 E6        30.03S
ISLIP          PTSUNNY   83  72  69 SE7       30.01S
NEW YORK CITY  PTSUNNY   80  68  66 NE13      30.01S
CENTRAL PARK   PTSUNNY   83  69  62 NE7       30.04S
$$

NYZ005>009-017-018-044>046-055-056-301700-
CENTRAL


CITY           SKY/WX    TMP DP  RH WIND       PRES   REMARKS
FULTON         MOSUNNY   81  59  47 E6        30.05F
SYRACUSE       NOT AVBL
ROME           CLOUDY    76  63  64 VRB6      30.07S
ELMIRA         CLOUDY    70  63  78 N8        30.05S
BINGHAMTON     CLOUDY    67  62  84 NE7       30.08S
MONTICELLO     CLOUDY    73  64  73 E7        30.08S
$$

NYZ026>034-041>043-087-301700-
NORTH


CITY           SKY/WX    TMP DP  RH WIND       PRES   REMARKS
WATERTOWN      MOSUNNY   80  53  39 N10       30.06F
FORT DRUM      NOT AVBL
MASSENA        MOSUNNY   75  57  53 E5        30.10S
SARANAC LAKE   PTSUNNY   71  49  45 NE7       30.10S
PLATTSBURGH    SUNNY     73  59  61 NE8       30.08F
$$

NYZ001>004-010>016-019>021-085-301700-
WEST


CITY           SKY/WX    TMP DP  RH WIND       PRES   REMARKS
NIAGARA FALLS  CLOUDY    76  61  59 E10       30.03F
BUFFALO        CLOUDY    72  60  66 E10       30.04S
DUNKIRK        CLOUDY    72  63  73 E10       30.02S
JAMESTOWN      CLOUDY    64  61  88 E6        30.04S
WELLSVILLE     LGT RAIN  67  63  87 NE7       30.10S
ROCHESTER      CLOUDY    75  61  61 E8        30.06S
PENN YAN       LGT RAIN  65  62  90 VRB3      30.07F
$$

             KEY
       WCI = WIND CHILL INDEX
       VSB = VISIBILITY
       HX  = HEAT INDEX
$$




USA.gov is the U.S. government's official web portal to all federal, state and local government web resources and services.